Location: Tuebingen alte Sternwarte
(48.5376°N, 9.0555°E)
Time: 02:42:11
(UTC+01:00)

Tiangong 2 - Visible Passes

Search period start: 22 November 2017 00:00
Search period end: 02 December 2017 00:00
Orbit: 386 x 392 km, 42.8° (Epoch: 21 November)

Date Brightness Start Highest point End Pass type
(mag) Time Alt. Az. Time Alt. Az. Time Alt. Az.
27 Nov 4.0 06:50:09 10° SSW 06:52:01 15° SSE 06:53:53 10° ESE visible
28 Nov 4.3 05:53:42 10° SSE 05:54:03 10° SSE 05:54:25 10° SE visible
29 Nov 3.5 06:29:44 10° SSW 06:32:08 20° SSE 06:34:34 10° ESE visible
30 Nov 3.7 05:33:28 14° S 05:34:07 15° SSE 05:36:03 10° ESE visible
30 Nov 2.9 07:07:35 10° SW 07:10:22 28° S 07:13:10 10° ESE visible
01 Dec 3.0 06:10:33 16° SW 06:12:16 25° S 06:14:57 10° ESE visible
